Weather History for Lincoln, NE

Change the Weather History Date:

Sunday, June 17, 2012

  Actual Average Record
Temperature  
Mean Temperature 77 °F 73 °F  
Max Temperature 92 °F 85 °F 101 °F (1918)
Min Temperature 62 °F 62 °F 44 °F (1974)
Degree Days  
Heating Degree Days 0 0  
Month to date heating degree days 11 13  
Since 1 June heating degree days 11 13  
Since 1 July heating degree days 5094 6053  
Cooling Degree Days 12 9  
Month to date cooling degree days 134 109  
Year to date cooling degree days 325 188  
Since 1 June cooling degree days 134 109  
Growing Degree Days 26 (Base 50)    
Moisture  
Dew Point 65 °F    
Average Humidity 72    
Maximum Humidity 100    
Minimum Humidity 44    
Precipitation  
Precipitation 0.00 in 0.15 in 1.82 in (1983)
Month to date precipitation 2.73 2.49  
Year to date precipitation 12.37 12.83  
Snow  
Snow 0.00 in 0.00 in - ()
Month to date snowfall 0.0 0.0  
Since 1 July snowfall 18.8 25.9  
Snow Depth 0.00 in    
Sea Level Pressure  
Sea Level Pressure 29.75 in    
Wind  
Wind Speed 14 mph (South)    
Max Wind Speed 30 mph    
Max Gust Speed 39 mph    
Visibility 9 miles    
Events      
T = Trace of Precipitation, MM = Missing Value Source: NWS Daily Summary

Daily Weather History Graph

Daily Weather History Graph

Search for Another Location

Airport:

Trip Planner

Search our weather history database for the weather conditions in past years. The results will help you decide how hot, cold, wet, or windy it might be!

Date:

Astronomy

Jun. 17, 2012 Rise Set
Actual Time 5:54 AM CDT 9:01 PM CDT
Civil Twilight 5:21 AM CDT 9:34 PM CDT
Nautical Twilight 4:38 AM CDT 10:17 PM CDT
Astronomical Twilight 3:48 AM CDT 11:08 PM CDT
Moon 4:25 AM CDT (6/17) 7:30 PM CDT (6/17)
Length of Visible Light 16h 13m
Length of Day
15h 06m
Waning Crescent, 3% of the Moon is Illuminated
Jun 17
Waning Crescent
Jun 19
New
Jun 26
First Quarter
Jul 3
Full
Jul 10
Last Quarter

Hourly Weather History & Observations

Time (CDT) Temp. Heat Index Dew Point Humidity Pressure Visibility Wind Dir Wind Speed Gust Speed Precip Events Conditions
12:54 AM 66.0 °F - 63.0 °F 90% 29.99 in 7.0 mi Calm Calm - N/A   Clear
1:54 AM 64.9 °F - 63.0 °F 93% 29.98 in 6.0 mi Calm Calm - N/A   Clear
2:54 AM 62.1 °F - 61.0 °F 96% 29.96 in 7.0 mi Calm Calm - N/A   Partly Cloudy
3:54 AM 63.0 °F - 61.0 °F 93% 29.94 in 7.0 mi Calm Calm - N/A   Partly Cloudy
4:54 AM 63.0 °F - 62.1 °F 97% 29.93 in 6.0 mi SSE 6.9 mph - N/A   Scattered Clouds
5:54 AM 63.0 °F - 62.1 °F 97% 29.91 in 5.0 mi SSE 5.8 mph - N/A   Clear
6:54 AM 66.0 °F - 64.0 °F 93% 29.90 in 7.0 mi SSE 3.5 mph - N/A   Clear
7:54 AM 69.1 °F - 66.0 °F 90% 29.89 in 9.0 mi South 8.1 mph - N/A   Clear
8:54 AM 73.9 °F - 66.0 °F 76% 29.88 in 10.0 mi South 11.5 mph - N/A   Clear
9:54 AM 79.0 °F - 64.9 °F 62% 29.84 in 10.0 mi South 18.4 mph - N/A   Clear
10:54 AM 82.0 °F 84.5 °F 66.9 °F 60% 29.81 in 10.0 mi South 17.3 mph - N/A   Partly Cloudy
11:54 AM 84.0 °F 87.8 °F 69.1 °F 61% 29.78 in 10.0 mi SSE 19.6 mph 24.2 mph N/A   Partly Cloudy
12:54 PM 86.0 °F 90.7 °F 70.0 °F 59% 29.75 in 10.0 mi South 17.3 mph 25.3 mph N/A   Clear
1:54 PM 89.1 °F 94.1 °F 70.0 °F 53% 29.71 in 10.0 mi South 24.2 mph 29.9 mph N/A   Scattered Clouds
2:54 PM 90.0 °F 95.4 °F 70.0 °F 52% 29.65 in 10.0 mi South 19.6 mph 31.1 mph N/A   Partly Cloudy
3:54 PM 91.9 °F 96.9 °F 69.1 °F 47% 29.62 in 10.0 mi SSW 18.4 mph 35.7 mph N/A   Partly Cloudy
4:54 PM 91.0 °F 94.3 °F 66.9 °F 45% 29.60 in 10.0 mi South 21.9 mph 34.5 mph N/A   Partly Cloudy
5:54 PM 91.0 °F 93.8 °F 66.0 °F 44% 29.58 in 10.0 mi South 24.2 mph 33.4 mph N/A   Clear
6:54 PM 89.1 °F 91.3 °F 66.0 °F 46% 29.56 in 10.0 mi South 18.4 mph - N/A   Clear
7:54 PM 88.0 °F 90.3 °F 66.0 °F 48% 29.55 in 10.0 mi South 17.3 mph - N/A   Clear
8:54 PM 84.0 °F 85.8 °F 64.9 °F 53% 29.54 in 10.0 mi South 12.7 mph - N/A   Clear
9:54 PM 82.0 °F 83.4 °F 64.0 °F 54% 29.52 in 10.0 mi South 15.0 mph - N/A   Clear
10:54 PM 82.0 °F 83.0 °F 62.1 °F 51% 29.52 in 10.0 mi South 17.3 mph 25.3 mph N/A   Clear
11:54 PM 80.1 °F 81.2 °F 62.1 °F 54% 29.52 in 10.0 mi South 16.1 mph 23.0 mph N/A   Clear